Time,TemperatureF,DewpointF,PressureIn,WindDirection,WindDirectionDegrees,WindSpeedMPH,WindSpeedGustMPH,Humidity,HourlyPrecipIn,Conditions,Clouds,dailyrainin,SoftwareType,DateUTC
2013-08-24 00:08:00,47.0,45.0,30.18,NNE,26,0.0,1.0,93,0.00,,,0.00,weatherlink.com 1.10,2013-08-24 04:08:00,
2013-08-24 00:23:00,47.2,46.0,30.18,NNE,26,0.0,2.0,94,0.00,,,0.00,weatherlink.com 1.10,2013-08-24 04:23:00,
2013-08-24 00:38:00,47.2,46.0,30.18,NNE,26,0.0,2.0,94,0.00,,,0.00,weatherlink.com 1.10,2013-08-24 04:38:00,
2013-08-24 00:53:00,46.9,45.0,30.19,NNE,26,0.0,2.0,94,0.00,,,0.00,weatherlink.com 1.10,2013-08-24 04:53:00,
2013-08-24 01:08:00,46.8,45.0,30.19,NNE,26,0.0,0.0,94,0.00,,,0.00,weatherlink.com 1.10,2013-08-24 05:08:00,
2013-08-24 01:23:00,46.4,45.0,30.19,NNE,26,0.0,0.0,95,0.00,,,0.00,weatherlink.com 1.10,2013-08-24 05:23:00,
2013-08-24 01:38:00,46.6,45.0,30.19,NNE,26,0.0,1.0,95,0.00,,,0.00,weatherlink.com 1.10,2013-08-24 05:38:00,
2013-08-24 01:53:00,46.3,45.0,30.20,NNE,26,0.0,1.0,95,0.00,,,0.00,weatherlink.com 1.10,2013-08-24 05:53:00,
2013-08-24 02:08:00,46.5,45.0,30.20,NNE,26,0.0,1.0,95,0.00,,,0.00,weatherlink.com 1.10,2013-08-24 06:08:00,
2013-08-24 02:23:00,46.1,45.0,30.20,NNE,26,0.0,0.0,95,0.00,,,0.00,weatherlink.com 1.10,2013-08-24 06:23:00,
2013-08-24 02:38:00,46.0,45.0,30.20,NNE,26,0.0,0.0,95,0.00,,,0.00,weatherlink.com 1.10,2013-08-24 06:38:00,
2013-08-24 02:53:00,46.1,45.0,30.20,NNE,26,0.0,0.0,95,0.00,,,0.00,weatherlink.com 1.10,2013-08-24 06:53:00,
2013-08-24 03:08:00,46.3,45.0,30.21,NNE,26,0.0,0.0,95,0.00,,,0.00,weatherlink.com 1.10,2013-08-24 07:08:00,
2013-08-24 03:23:00,46.3,45.0,30.21,NNE,26,0.0,1.0,95,0.00,,,0.00,weatherlink.com 1.10,2013-08-24 07:23:00,
2013-08-24 03:38:00,46.1,45.0,30.22,NNE,26,0.0,0.0,95,0.00,,,0.00,weatherlink.com 1.10,2013-08-24 07:38:00,
2013-08-24 03:53:00,46.0,44.0,30.22,NNE,26,0.0,1.0,94,0.00,,,0.00,weatherlink.com 1.10,2013-08-24 07:53:00,
2013-08-24 04:08:00,45.8,44.0,30.23,NNE,26,0.0,2.0,94,0.00,,,0.00,weatherlink.com 1.10,2013-08-24 08:08:00,
2013-08-24 04:23:00,45.7,44.0,30.23,NNE,26,0.0,0.0,94,0.00,,,0.00,weatherlink.com 1.10,2013-08-24 08:23:00,
2013-08-24 04:38:00,45.5,44.0,30.23,NNE,26,0.0,0.0,94,0.00,,,0.00,weatherlink.com 1.10,2013-08-24 08:38:00,
2013-08-24 04:53:00,45.6,44.0,30.24,NNE,26,0.0,0.0,95,0.00,,,0.00,weatherlink.com 1.10,2013-08-24 08:53:00,
2013-08-24 05:08:00,45.6,44.0,30.25,NNE,26,0.0,0.0,95,0.00,,,0.00,weatherlink.com 1.10,2013-08-24 09:08:00,
2013-08-24 05:23:00,45.7,45.0,30.25,NNE,26,0.0,0.0,96,0.00,,,0.00,weatherlink.com 1.10,2013-08-24 09:23:00,
2013-08-24 05:39:00,45.7,45.0,30.26,NNE,26,0.0,0.0,96,0.00,,,0.00,weatherlink.com 1.10,2013-08-24 09:39:00,
2013-08-24 05:54:00,45.5,45.0,30.26,NNE,26,0.0,0.0,96,0.00,,,0.00,weatherlink.com 1.10,2013-08-24 09:54:00,
2013-08-24 06:09:00,45.6,45.0,30.27,NNE,26,0.0,0.0,96,0.00,,,0.00,weatherlink.com 1.10,2013-08-24 10:09:00,
2013-08-24 06:24:00,45.7,45.0,30.28,NNE,26,0.0,1.0,96,0.00,,,0.00,weatherlink.com 1.10,2013-08-24 10:24:00,
2013-08-24 06:39:00,47.8,47.0,30.28,NNE,26,0.0,0.0,97,0.00,,,0.00,weatherlink.com 1.10,2013-08-24 10:39:00,
2013-08-24 06:54:00,48.9,48.0,30.29,NNE,26,0.0,1.0,97,0.00,,,0.00,weatherlink.com 1.10,2013-08-24 10:54:00,
2013-08-24 07:09:00,49.7,49.0,30.29,NNE,26,0.0,1.0,96,0.00,,,0.00,weatherlink.com 1.10,2013-08-24 11:09:00,
2013-08-24 07:24:00,52.2,50.0,30.30,NNE,26,0.0,0.0,92,0.00,,,0.00,weatherlink.com 1.10,2013-08-24 11:24:00,
2013-08-24 07:39:00,53.4,51.0,30.30,NNE,26,0.0,0.0,90,0.00,,,0.00,weatherlink.com 1.10,2013-08-24 11:39:00,
2013-08-24 07:54:00,53.7,51.0,30.30,NE,47,0.0,2.0,90,0.00,,,0.00,weatherlink.com 1.10,2013-08-24 11:54:00,
2013-08-24 08:09:00,54.9,51.0,30.31,NE,47,0.0,1.0,86,0.00,,,0.00,weatherlink.com 1.10,2013-08-24 12:09:00,
2013-08-24 08:24:00,56.8,51.0,30.31,NE,47,0.0,1.0,82,0.00,,,0.00,weatherlink.com 1.10,2013-08-24 12:24:00,
2013-08-24 08:39:00,59.5,51.0,30.31,West,277,0.0,4.0,74,0.00,,,0.00,weatherlink.com 1.10,2013-08-24 12:39:00,
2013-08-24 08:54:00,59.1,50.0,30.31,West,274,0.0,1.0,72,0.00,,,0.00,weatherlink.com 1.10,2013-08-24 12:54:00,
2013-08-24 09:09:00,59.5,50.0,30.32,West,274,0.0,2.0,70,0.00,,,0.00,weatherlink.com 1.10,2013-08-24 13:09:00,
2013-08-24 09:24:00,61.4,47.0,30.32,NE,53,0.0,4.0,60,0.00,,,0.00,weatherlink.com 1.10,2013-08-24 13:24:00,
2013-08-24 09:39:00,61.8,46.0,30.32,NNE,28,0.0,5.0,57,0.00,,,0.00,weatherlink.com 1.10,2013-08-24 13:39:00,
2013-08-24 09:54:00,62.9,48.0,30.32,NE,41,3.0,5.0,59,0.00,,,0.00,weatherlink.com 1.10,2013-08-24 13:54:00,
2013-08-24 10:09:00,62.5,46.0,30.33,WNW,296,1.0,4.0,55,0.00,,,0.00,weatherlink.com 1.10,2013-08-24 14:09:00,
2013-08-24 10:24:00,62.4,47.0,30.33,NE,40,3.0,5.0,57,0.00,,,0.00,weatherlink.com 1.10,2013-08-24 14:24:00,
2013-08-24 10:39:00,62.0,47.0,30.33,NE,54,4.0,9.0,58,0.00,,,0.00,weatherlink.com 1.10,2013-08-24 14:39:00,
2013-08-24 10:54:00,62.5,47.0,30.33,NE,34,1.0,6.0,57,0.00,,,0.00,weatherlink.com 1.10,2013-08-24 14:54:00,
2013-08-24 11:09:00,62.8,45.0,30.33,North,11,1.0,4.0,53,0.00,,,0.00,weatherlink.com 1.10,2013-08-24 15:09:00,
2013-08-24 11:24:00,62.9,44.0,30.33,NNE,30,1.0,9.0,51,0.00,,,0.00,weatherlink.com 1.10,2013-08-24 15:24:00,
2013-08-24 11:39:00,63.4,44.0,30.33,ENE,65,2.0,8.0,49,0.00,,,0.00,weatherlink.com 1.10,2013-08-24 15:39:00,
2013-08-24 11:54:00,63.2,43.0,30.33,NE,47,5.0,12.0,48,0.00,,,0.00,weatherlink.com 1.10,2013-08-24 15:54:00,
2013-08-24 12:09:00,64.1,47.0,30.33,NE,41,1.0,5.0,55,0.00,,,0.00,weatherlink.com 1.10,2013-08-24 16:09:00,
2013-08-24 12:25:00,64.9,49.0,30.32,North,11,3.0,5.0,56,0.00,,,0.00,weatherlink.com 1.10,2013-08-24 16:25:00,
2013-08-24 12:40:00,64.7,49.0,30.31,NE,43,0.0,4.0,57,0.00,,,0.00,weatherlink.com 1.10,2013-08-24 16:40:00,
2013-08-24 12:55:00,64.3,47.0,30.31,NNE,26,3.0,13.0,53,0.00,,,0.00,weatherlink.com 1.10,2013-08-24 16:55:00,
2013-08-24 13:10:00,64.7,47.0,30.31,NE,53,0.0,7.0,53,0.00,,,0.00,weatherlink.com 1.10,2013-08-24 17:10:00,
2013-08-24 13:25:00,65.7,48.0,30.31,NW,326,0.0,8.0,53,0.00,,,0.00,weatherlink.com 1.10,2013-08-24 17:25:00,
2013-08-24 13:40:00,66.3,46.0,30.31,NE,45,3.0,6.0,49,0.00,,,0.00,weatherlink.com 1.10,2013-08-24 17:40:00,
2013-08-24 13:55:00,65.6,47.0,30.31,NE,34,3.0,8.0,52,0.00,,,0.00,weatherlink.com 1.10,2013-08-24 17:55:00,
2013-08-24 14:10:00,67.0,48.0,30.31,WNW,302,0.0,9.0,50,0.00,,,0.00,weatherlink.com 1.10,2013-08-24 18:10:00,
2013-08-24 14:25:00,67.3,45.0,30.30,NNE,31,0.0,4.0,45,0.00,,,0.00,weatherlink.com 1.10,2013-08-24 18:25:00,
2013-08-24 14:40:00,66.2,46.0,30.30,NE,50,0.0,7.0,49,0.00,,,0.00,weatherlink.com 1.10,2013-08-24 18:40:00,
2013-08-24 14:55:00,67.6,46.0,30.30,NE,34,0.0,6.0,46,0.00,,,0.00,weatherlink.com 1.10,2013-08-24 18:55:00,
2013-08-24 15:10:00,67.5,45.0,30.30,NNW,329,0.0,4.0,44,0.00,,,0.00,weatherlink.com 1.10,2013-08-24 19:10:00,
2013-08-24 15:25:00,67.2,45.0,30.30,NNE,24,2.0,4.0,45,0.00,,,0.00,weatherlink.com 1.10,2013-08-24 19:25:00,
2013-08-24 15:40:00,67.4,43.0,30.30,NNE,27,1.0,5.0,41,0.00,,,0.00,weatherlink.com 1.10,2013-08-24 19:40:00,
2013-08-24 15:55:00,66.9,45.0,30.30,NNE,15,0.0,6.0,45,0.00,,,0.00,weatherlink.com 1.10,2013-08-24 19:55:00,
2013-08-24 16:10:00,67.1,44.0,30.30,NE,49,1.0,7.0,44,0.00,,,0.00,weatherlink.com 1.10,2013-08-24 20:10:00,
2013-08-24 16:25:00,67.1,45.0,30.30,NNE,14,1.0,6.0,45,0.00,,,0.00,weatherlink.com 1.10,2013-08-24 20:25:00,
2013-08-24 16:40:00,66.9,45.0,30.29,NNW,336,0.0,4.0,46,0.00,,,0.00,weatherlink.com 1.10,2013-08-24 20:40:00,
2013-08-24 16:55:00,66.2,45.0,30.29,NE,40,0.0,4.0,46,0.00,,,0.00,weatherlink.com 1.10,2013-08-24 20:55:00,
2013-08-24 17:10:00,65.8,45.0,30.29,NNE,30,0.0,2.0,47,0.00,,,0.00,weatherlink.com 1.10,2013-08-24 21:10:00,
2013-08-24 17:25:00,64.8,48.0,30.29,North,355,0.0,1.0,54,0.00,,,0.00,weatherlink.com 1.10,2013-08-24 21:25:00,
2013-08-24 17:40:00,64.3,47.0,30.29,NE,45,2.0,3.0,54,0.00,,,0.00,weatherlink.com 1.10,2013-08-24 21:40:00,
2013-08-24 17:55:00,64.3,47.0,30.29,NNW,341,0.0,2.0,54,0.00,,,0.00,weatherlink.com 1.10,2013-08-24 21:55:00,
2013-08-24 18:10:00,64.0,49.0,30.29,NE,50,0.0,1.0,59,0.00,,,0.00,weatherlink.com 1.10,2013-08-24 22:10:00,
2013-08-24 18:25:00,61.8,49.0,30.30,NE,48,0.0,1.0,63,0.00,,,0.00,weatherlink.com 1.10,2013-08-24 22:25:00,
2013-08-24 18:40:00,60.4,49.0,30.30,North,9,0.0,1.0,66,0.00,,,0.00,weatherlink.com 1.10,2013-08-24 22:40:00,
2013-08-24 18:55:00,59.5,50.0,30.30,North,9,0.0,1.0,70,0.00,,,0.00,weatherlink.com 1.10,2013-08-24 22:55:00,
2013-08-24 19:10:00,59.1,49.0,30.30,North,9,0.0,0.0,70,0.00,,,0.00,weatherlink.com 1.10,2013-08-24 23:10:00,
2013-08-24 19:25:00,58.5,49.0,30.30,NW,309,0.0,0.0,71,0.00,,,0.00,weatherlink.com 1.10,2013-08-24 23:25:00,
2013-08-24 19:40:00,57.2,49.0,30.30,NW,309,0.0,0.0,73,0.00,,,0.00,weatherlink.com 1.10,2013-08-24 23:40:00,
2013-08-24 19:55:00,57.0,48.0,30.31,NW,309,0.0,0.0,73,0.00,,,0.00,weatherlink.com 1.10,2013-08-24 23:55:00,
2013-08-24 20:10:00,56.3,50.0,30.31,NW,309,0.0,0.0,79,0.00,,,0.00,weatherlink.com 1.10,2013-08-25 00:10:00,
2013-08-24 20:25:00,55.1,48.0,30.31,NW,309,0.0,0.0,78,0.00,,,0.00,weatherlink.com 1.10,2013-08-25 00:25:00,
2013-08-24 20:40:00,54.1,49.0,30.32,NW,309,0.0,0.0,84,0.00,,,0.00,weatherlink.com 1.10,2013-08-25 00:40:00,
2013-08-24 20:55:00,54.1,50.0,30.32,NW,309,0.0,0.0,86,0.00,,,0.00,weatherlink.com 1.10,2013-08-25 00:55:00,
2013-08-24 21:10:00,53.0,50.0,30.33,NW,309,0.0,0.0,89,0.00,,,0.00,weatherlink.com 1.10,2013-08-25 01:10:00,
2013-08-24 21:25:00,53.1,49.0,30.33,NW,309,0.0,0.0,87,0.00,,,0.00,weatherlink.com 1.10,2013-08-25 01:25:00,
2013-08-24 21:40:00,52.6,50.0,30.33,NW,309,0.0,0.0,91,0.00,,,0.00,weatherlink.com 1.10,2013-08-25 01:40:00,
2013-08-24 21:55:00,51.8,49.0,30.34,NW,309,0.0,0.0,90,0.00,,,0.00,weatherlink.com 1.10,2013-08-25 01:55:00,
2013-08-24 22:10:00,52.4,50.0,30.34,NW,309,0.0,0.0,92,0.00,,,0.00,weatherlink.com 1.10,2013-08-25 02:10:00,
2013-08-24 22:25:00,52.1,50.0,30.34,NW,309,0.0,0.0,92,0.00,,,0.00,weatherlink.com 1.10,2013-08-25 02:25:00,
2013-08-24 22:40:00,51.8,50.0,30.34,NW,309,0.0,0.0,93,0.00,,,0.00,weatherlink.com 1.10,2013-08-25 02:40:00,
2013-08-24 22:55:00,51.8,50.0,30.34,NW,309,0.0,0.0,94,0.00,,,0.00,weatherlink.com 1.10,2013-08-25 02:55:00,
2013-08-24 23:10:00,51.8,51.0,30.34,NW,309,0.0,0.0,95,0.00,,,0.00,weatherlink.com 1.10,2013-08-25 03:10:00,
2013-08-24 23:25:00,50.9,49.0,30.33,NW,309,0.0,0.0,93,0.00,,,0.00,weatherlink.com 1.10,2013-08-25 03:25:00,
2013-08-24 23:40:00,50.6,49.0,30.33,NW,309,0.0,0.0,95,0.00,,,0.00,weatherlink.com 1.10,2013-08-25 03:40:00,
2013-08-24 23:55:00,51.0,50.0,30.33,NW,309,0.0,0.0,95,0.00,,,0.00,weatherlink.com 1.10,2013-08-25 03:55:00,